Precipitable_Water
0.61 0.59 0.59 0.59 0.58 0.57 0.56 0.54 0.53 0.52 0.50 0.49 0.47 0.53 0.70 0.79 0.83 0.81 0.71 0.83 1.24 1.51 1.83 1.77 1.71 1.68 1.63 1.46 1.44 1.50 1.20 0.80 0.87 0.96 0.91 1.09 0.93 1.08 1.10 1.02 1.13 1.19 1.19 1.38 1.52
0.61 0.60 0.59 0.58 0.58 0.57 0.56 0.55 0.53 0.52 0.50 0.47 0.46 0.47 0.64 0.77 0.70 0.70 0.82 0.85 1.19 1.49 1.69 1.55 1.44 1.55 1.42 1.34 1.35 1.56 1.29 1.04 1.11 1.15 1.00 1.01 1.00 0.99 1.04 1.01 1.00 1.09 1.32 1.40 1.45
0.61 0.60 0.59 0.58 0.58 0.58 0.57 0.56 0.54 0.52 0.50 0.47 0.44 0.44 0.56 0.75 0.66 0.68 0.85 0.82 1.17 1.51 1.55 1.39 1.41 1.55 1.21 1.36 1.22 1.18 1.04 1.18 1.16 1.23 1.20 1.03 0.99 1.07 1.02 0.89 0.99 0.96 1.12 1.27 1.35
0.62 0.60 0.59 0.58 0.58 0.58 0.57 0.56 0.55 0.53 0.50 0.47 0.44 0.44 0.51 0.67 0.50 1.00 0.85 0.94 1.23 1.56 1.38 1.31 1.34 1.30 1.13 1.05 1.19 1.07 1.17 1.25 1.17 1.21 1.13 1.07 1.08 0.98 1.14 0.89 1.09 1.09 1.15 1.23 1.25
0.62 0.60 0.59 0.59 0.59 0.59 0.58 0.56 0.55 0.53 0.51 0.47 0.44 0.45 0.43 0.47 0.54 0.98 0.89 1.09 1.28 1.47 1.24 1.17 1.05 1.17 0.94 0.99 1.05 1.03 1.08 1.24 1.28 1.24 1.21 1.20 1.05 0.97 1.01 0.93 1.07 1.11 1.08 1.13 1.19
0.62 0.60 0.59 0.59 0.59 0.60 0.59 0.56 0.54 0.53 0.51 0.48 0.45 0.45 0.32 0.32 0.80 0.96 0.98 1.06 1.19 1.25 1.16 1.06 1.00 0.99 0.98 0.89 0.83 0.94 1.05 1.11 1.16 1.18 1.16 1.04 1.08 1.08 1.06 1.02 0.96 1.05 1.01 1.02 1.06
0.63 0.62 0.61 0.59 0.59 0.59 0.59 0.56 0.54 0.52 0.54 0.53 0.48 0.40 0.32 0.31 0.87 0.98 1.06 1.09 1.12 1.17 1.01 1.06 1.06 0.98 0.97 0.87 0.84 0.93 0.96 1.03 1.12 1.16 1.05 1.08 0.88 1.00 1.09 1.09 0.97 1.04 1.10 1.03 1.06
0.65 0.63 0.62 0.60 0.58 0.57 0.57 0.56 0.57 0.60 0.58 0.53 0.49 0.39 0.28 0.50 0.89 0.86 1.03 1.02 1.04 1.18 1.04 1.05 1.01 0.93 0.94 0.88 0.79 0.83 0.85 0.86 0.98 1.14 1.13 1.29 0.85 0.99 1.11 1.08 1.02 1.01 1.10 1.14 1.05
0.66 0.66 0.65 0.63 0.61 0.56 0.54 0.55 0.60 0.62 0.53 0.47 0.41 0.41 0.26 0.44 0.64 0.76 0.95 0.82 0.91 1.03 1.01 1.04 0.95 0.86 0.83 0.81 0.71 0.52 0.50 0.59 0.80 1.06 1.07 1.12 0.79 1.01 1.16 1.13 1.05 1.02 1.08 1.13 1.15
0.70 0.69 0.67 0.66 0.65 0.62 0.53 0.57 0.65 0.67 0.58 0.56 0.49 0.26 0.34 0.21 0.59 0.72 0.86 0.77 0.74 0.82 0.80 0.80 0.76 0.73 0.74 0.67 0.49 0.41 0.44 0.54 0.65 0.84 1.02 0.98 0.91 0.96 1.10 1.15 1.11 1.04 1.04 1.11 1.15
0.69 0.66 0.63 0.62 0.62 0.64 0.58 0.54 0.40 0.39 0.48 0.42 0.34 0.26 0.28 0.34 0.55 0.61 0.65 0.54 0.56 0.61 0.57 0.70 0.66 0.69 0.76 0.53 0.44 0.40 0.43 0.50 0.64 0.78 0.94 0.96 0.91 0.96 1.03 1.12 1.10 1.07 1.01 1.03 1.13
0.70 0.66 0.62 0.60 0.57 0.60 0.60 0.49 0.50 0.56 0.35 0.39 0.42 0.34 0.38 0.35 0.30 0.42 0.53 0.32 0.40 0.40 0.56 0.67 0.62 0.76 0.63 0.47 0.40 0.38 0.34 0.42 0.64 0.64 0.85 0.85 0.94 0.99 1.01 1.06 1.14 1.09 1.07 1.02 1.10
0.68 0.63 0.61 0.58 0.54 0.55 0.54 0.55 0.51 0.48 0.33 0.34 0.30 0.28 0.30 0.32 0.29 0.30 0.38 0.35 0.33 0.36 0.47 0.59 0.66 0.66 0.53 0.42 0.35 0.31 0.31 0.36 0.45 0.59 0.86 0.75 0.85 0.98 1.00 1.06 1.16 1.22 1.18 1.08 1.05
0.68 0.62 0.58 0.53 0.48 0.54 0.50 0.55 0.54 0.51 0.29 0.28 0.24 0.28 0.33 0.31 0.30 0.37 0.33 0.35 0.34 0.29 0.46 0.54 0.66 0.59 0.51 0.43 0.35 0.28 0.28 0.32 0.43 0.49 0.55 0.57 0.55 0.86 0.94 0.93 1.06 1.18 1.20 1.12 1.02
0.68 0.60 0.55 0.58 0.56 0.52 0.60 0.58 0.55 0.50 0.27 0.30 0.27 0.42 0.33 0.32 0.36 0.27 0.35 0.34 0.35 0.35 0.44 0.43 0.46 0.46 0.43 0.44 0.37 0.27 0.27 0.28 0.35 0.38 0.43 0.57 0.63 0.84 0.82 0.83 0.94 1.12 1.22 1.24 1.11
0.66 0.64 0.59 0.53 0.55 0.59 0.58 0.57 0.52 0.33 0.33 0.31 0.30 0.26 0.29 0.32 0.30 0.35 0.28 0.35 0.45 0.38 0.36 0.45 0.41 0.36 0.41 0.43 0.37 0.31 0.27 0.29 0.33 0.36 0.42 0.45 0.52 0.83 0.76 0.83 0.91 1.06 1.19 1.27 1.23
0.66 0.62 0.57 0.60 0.50 0.54 0.59 0.53 0.35 0.39 0.43 0.25 0.21 0.26 0.25 0.25 0.26 0.27 0.23 0.23 0.27 0.22 0.22 0.23 0.28 0.36 0.41 0.37 0.40 0.31 0.25 0.23 0.24 0.32 0.45 0.48 0.56 0.75 0.76 0.80 0.93 0.95 1.10 1.28 1.28
0.60 0.57 0.54 0.55 0.60 0.64 0.62 0.51 0.40 0.34 0.33 0.32 0.28 0.27 0.26 0.27 0.30 0.27 0.27 0.26 0.31 0.26 0.24 0.18 0.16 0.18 0.34 0.33 0.39 0.36 0.28 0.25 0.23 0.28 0.43 0.39 0.51 0.61 0.89 0.85 0.84 0.98 1.09 1.18 1.31
0.79 0.79 0.75 0.70 0.73 0.74 0.63 0.54 0.38 0.38 0.36 0.31 0.30 0.28 0.31 0.30 0.31 0.27 0.29 0.28 0.30 0.24 0.21 0.22 0.21 0.22 0.22 0.28 0.34 0.30 0.27 0.30 0.22 0.21 0.26 0.49 0.83 0.88 0.94 0.90 0.85 0.92 1.01 1.09 1.27
0.70 0.73 0.68 0.76 0.80 0.73 0.58 0.43 0.43 0.44 0.41 0.41 0.37 0.39 0.28 0.28 0.27 0.30 0.33 0.48 0.48 0.43 0.33 0.30 0.25 0.23 0.24 0.18 0.22 0.29 0.35 0.21 0.17 0.23 0.24 0.43 0.65 0.54 0.70 0.77 0.97 0.94 1.02 1.09 1.19
0.78 0.67 0.68 0.79 0.85 0.71 0.50 0.47 0.50 0.51 0.55 0.52 0.46 0.46 0.44 0.35 0.34 0.37 0.41 0.54 0.48 0.47 0.41 0.29 0.23 0.29 0.25 0.21 0.28 0.21 0.20 0.21 0.26 0.23 0.22 0.25 0.57 0.71 0.65 0.69 0.88 1.02 1.12 1.14 1.13
0.79 0.62 0.71 0.78 0.62 0.58 0.46 0.51 0.54 0.51 0.55 0.52 0.55 0.55 0.54 0.49 0.40 0.43 0.46 0.58 0.52 0.48 0.30 0.30 0.26 0.30 0.31 0.42 0.41 0.34 0.40 0.33 0.25 0.33 0.28 0.28 0.57 0.81 0.73 0.67 0.82 1.05 1.12 1.27 1.26
0.75 0.63 0.70 0.84 0.59 0.46 0.51 0.48 0.52 0.52 0.50 0.50 0.48 0.49 0.50 0.49 0.47 0.55 0.52 0.53 0.50 0.50 0.46 0.37 0.23 0.27 0.34 0.33 0.31 0.29 0.35 0.30 0.30 0.29 0.27 0.27 0.57 0.93 0.86 0.81 0.86 1.06 1.20 1.19 1.25
0.72 0.63 0.59 0.60 0.61 0.57 0.52 0.49 0.48 0.53 0.53 0.53 0.51 0.47 0.43 0.45 0.51 0.51 0.49 0.52 0.52 0.48 0.47 0.42 0.27 0.30 0.38 0.42 0.40 0.32 0.40 0.36 0.30 0.26 0.36 0.41 0.64 0.91 0.85 0.77 0.79 0.98 1.24 1.14 1.18
0.65 0.62 0.74 0.60 0.55 0.55 0.56 0.54 0.53 0.56 0.56 0.56 0.52 0.48 0.48 0.46 0.46 0.49 0.52 0.52 0.52 0.54 0.53 0.45 0.36 0.41 0.39 0.49 0.44 0.43 0.43 0.43 0.37 0.36 0.39 0.43 0.47 0.86 0.83 0.75 0.83 0.99 1.13 1.32 1.26
0.66 0.66 0.63 0.59 0.57 0.56 0.54 0.56 0.52 0.54 0.53 0.57 0.53 0.55 0.52 0.50 0.54 0.57 0.54 0.53 0.53 0.60 0.50 0.53 0.40 0.49 0.41 0.43 0.40 0.38 0.41 0.42 0.45 0.44 0.45 0.41 0.55 0.97 0.99 0.86 0.92 0.99 1.06 1.19 1.32
0.63 0.71 0.65 0.56 0.57 0.53 0.61 0.56 0.53 0.53 0.54 0.49 0.46 0.43 0.47 0.58 0.62 0.58 0.59 0.54 0.54 0.49 0.45 0.47 0.46 0.47 0.39 0.44 0.46 0.38 0.42 0.43 0.48 0.57 0.54 0.46 0.84 0.94 0.87 0.73 0.81 0.96 1.11 1.17 1.23
Wind_Speed
11 11 10 10 10 10 10 10 10 9 8 7 6 4 2 3 2 3 3 6 6 7 8 9 7 6 5 1 2 1 4 7 6 8 8 7 8 7 9 9 7 3 13 17 19
12 12 11 11 11 11 11 10 9 9 8 7 6 4 2 2 1 1 3 4 6 8 8 8 7 6 5 4 3 2 5 6 7 6 8 7 7 8 8 7 8 12 15 18 18
13 13 13 12 12 12 11 10 10 9 8 7 6 4 3 1 1 2 3 4 6 7 6 5 6 3 2 4 6 6 6 6 5 5 6 8 8 6 7 8 10 13 16 18 19
14 14 14 14 13 13 12 11 11 10 9 8 7 5 3 4 1 3 5 6 7 6 4 5 3 4 6 5 5 9 6 6 6 5 6 6 6 7 6 9 11 14 16 17 18
15 15 15 15 15 14 14 13 12 11 10 9 7 5 4 7 2 5 7 7 7 5 5 3 4 4 7 6 7 7 6 5 6 5 6 6 5 6 8 10 12 14 15 16 17
17 17 17 16 16 16 15 15 14 13 11 10 7 6 6 9 4 7 8 8 7 7 4 2 4 5 3 6 7 7 6 6 5 5 6 7 6 6 8 11 12 13 14 14 15
19 19 19 18 17 17 17 16 16 14 12 10 8 7 8 5 7 10 10 9 8 7 4 3 1 1 4 3 6 5 6 4 4 4 4 9 9 6 9 11 11 12 13 13 14
20 19 19 19 19 18 17 17 16 14 12 11 10 9 6 7 9 11 12 10 8 7 6 4 2 2 2 3 2 1 1 3 4 4 2 7 7 6 9 10 11 13 13 13 14
20 20 20 19 19 18 17 16 14 12 11 11 11 11 9 9 11 12 13 11 10 9 7 6 4 5 3 4 4 4 5 4 4 3 3 5 6 8 10 10 12 13 13 13 14
22 22 21 20 19 18 16 15 13 12 13 13 13 12 11 12 12 13 13 11 11 10 9 9 6 6 8 5 2 4 5 7 6 3 4 5 5 8 10 10 10 13 14 14 14
20 19 18 17 17 16 14 12 12 13 16 13 12 11 9 9 12 13 13 13 12 12 12 11 9 8 3 1 1 2 2 5 6 5 5 5 7 8 9 9 10 12 14 14 15
17 15 14 14 14 13 12 12 10 11 13 17 14 13 11 13 13 13 13 13 15 15 15 11 12 5 2 2 2 1 3 3 4 3 3 3 5 7 9 10 11 11 13 15 15
14 13 12 12 11 10 11 8 9 10 12 13 16 16 15 14 13 15 15 14 12 16 17 15 7 4 6 4 5 3 4 3 5 2 4 3 5 8 8 9 10 11 12 13 16
11 10 9 8 7 6 7 7 7 8 10 10 16 15 15 14 12 13 15 13 11 15 15 15 12 9 10 8 5 2 2 4 5 8 4 2 9 15 11 9 10 11 13 13 15
10 8 7 5 6 5 4 6 7 8 8 9 13 13 16 16 12 13 14 13 11 12 11 13 13 13 13 11 5 7 5 7 8 10 11 5 1 8 10 9 9 11 13 14 14
8 6 4 3 3 3 4 5 7 8 4 8 12 16 18 15 12 10 14 13 9 10 12 16 8 10 11 8 9 8 8 11 9 9 7 5 5 8 7 6 8 10 11 14 13
7 5 3 3 3 2 4 7 7 4 6 8 15 17 18 13 11 13 14 15 11 10 12 15 16 14 14 12 11 9 11 10 11 7 3 7 6 3 8 3 6 9 11 13 14
8 7 6 5 5 6 7 5 2 2 5 7 12 16 16 14 9 11 13 13 12 8 5 10 14 16 16 14 13 11 11 7 2 6 5 3 2 6 7 4 2 6 9 11 12
7 7 6 6 6 7 5 2 5 5 4 9 11 14 11 11 6 10 12 11 8 12 10 4 7 5 8 12 13 12 9 10 9 7 8 4 16 12 10 10 5 5 7 9 12
6 5 7 7 7 6 3 9 7 6 7 7 8 7 12 13 10 10 10 5 6 9 11 6 6 6 6 12 13 14 9 7 7 3 7 7 10 7 4 8 7 3 4 7 11
4 5 7 7 6 3 4 6 8 8 4 3 5 5 6 9 9 10 8 4 4 6 10 12 10 7 8 11 11 9 11 10 5 5 6 5 3 4 4 4 4 5 0 6 8
2 2 5 5 2 5 6 4 3 5 4 4 3 2 3 6 7 7 7 1 3 5 9 13 8 7 9 6 8 8 5 8 8 8 8 7 1 1 3 4 3 3 3 2 7
2 3 3 2 3 4 4 5 4 3 1 2 2 1 3 4 6 5 6 5 4 5 4 9 11 7 8 9 11 11 8 9 9 7 6 7 5 2 4 3 4 4 5 5 7
2 2 2 1 1 3 2 1 3 0 1 1 2 5 5 4 5 6 7 6 5 2 5 8 13 14 1 6 6 14 10 8 10 9 5 2 6 4 5 5 7 8 8 7 8
1 1 1 1 1 1 1 1 1 1 1 2 2 2 4 6 7 7 7 6 8 6 6 7 11 9 9 7 9 6 7 9 12 11 10 11 9 7 7 8 9 9 9 8 6
1 1 2 2 3 5 2 2 3 3 3 1 4 4 5 7 6 4 6 8 8 6 8 10 11 6 11 8 11 11 13 12 11 12 12 15 9 8 7 9 9 9 9 9 9
3 1 3 1 3 5 2 3 4 5 4 4 6 7 7 4 7 11 12 13 13 12 12 12 12 11 13 12 11 13 16 16 14 10 11 10 5 7 7 7 9 10 10 11 10
Wind_Direction
327 327 329 331 334 337 341 343 345 348 349 350 351 347 347 1 17 74 52 68 75 99 93 98 98 99 113 126 202 213 117 120 103 117 108 108 97 76 87 105 120 82 143 149 151
317 317 318 320 322 325 328 330 333 336 339 340 340 333 312 334 307 220 94 88 101 110 108 100 98 108 89 94 60 53 93 90 89 94 106 109 98 106 94 94 109 110 132 145 151
309 308 309 309 311 313 316 319 320 322 324 326 326 320 284 259 230 111 145 124 121 119 108 75 88 73 145 100 61 33 35 62 79 96 131 114 115 114 97 99 126 128 141 148 153
304 303 302 302 302 304 305 306 308 309 310 310 309 302 263 202 231 176 156 144 139 133 114 100 101 15 81 78 80 49 53 56 100 120 134 133 116 115 67 106 125 132 142 149 156
302 301 300 298 297 296 295 295 295 295 295 295 292 281 234 206 276 190 170 159 154 149 142 104 34 41 83 78 68 63 85 88 81 115 157 132 132 116 101 118 129 134 142 151 157
299 298 297 295 294 292 290 288 287 285 283 279 272 256 225 230 230 187 180 172 172 171 163 132 68 63 58 58 48 65 80 91 93 115 136 152 145 143 127 134 137 143 146 154 159
297 295 293 292 290 289 287 284 282 277 270 263 251 236 232 243 216 196 187 185 185 187 189 164 102 24 39 108 64 88 105 91 101 134 145 168 143 169 148 148 149 154 155 154 160
295 294 292 290 288 285 284 282 277 268 258 244 235 232 238 227 210 200 196 198 199 200 204 195 213 267 230 69 125 194 238 119 108 142 157 204 127 152 158 161 162 162 163 161 163
294 292 291 289 287 284 280 276 267 258 244 229 229 231 231 220 211 201 199 201 203 204 209 216 230 238 260 249 252 29 68 100 97 165 124 185 118 157 163 169 171 171 170 170 168
293 291 288 286 284 281 279 265 258 252 238 232 238 232 231 220 203 201 204 209 204 208 212 212 211 238 228 317 83 31 25 59 105 154 178 192 122 158 168 180 176 178 178 179 177
297 293 289 286 283 278 271 255 250 245 230 236 226 234 206 193 199 203 204 208 212 209 212 201 219 215 266 43 358 332 26 76 74 110 162 176 156 166 175 185 180 184 185 187 186
301 297 292 289 285 274 259 250 251 248 238 226 224 223 216 199 202 202 200 206 208 211 211 210 220 248 198 236 247 249 291 74 88 135 216 151 190 174 181 189 188 190 192 193 193
307 302 296 292 286 264 249 254 244 240 230 216 216 214 207 205 205 201 203 206 210 214 212 214 203 198 212 239 258 201 13 359 344 232 240 145 355 193 196 192 196 198 198 198 199
315 308 303 299 288 257 243 233 237 223 228 202 206 208 202 202 206 187 199 199 210 213 211 217 238 219 224 242 234 8 295 300 287 296 204 214 235 225 185 188 197 201 202 200 200
324 317 310 290 293 255 240 232 216 197 207 187 184 190 192 195 177 202 198 207 222 214 215 219 221 222 225 233 243 295 297 286 288 285 274 263 97 157 165 182 192 200 201 203 203
339 336 337 320 280 277 230 207 187 199 197 192 189 190 187 203 196 186 194 209 223 221 218 233 215 223 228 231 232 267 279 268 258 253 307 322 84 263 152 187 194 195 199 200 203
7 13 23 38 53 100 141 155 176 251 192 176 178 179 187 188 185 185 192 200 202 208 218 219 234 227 224 236 230 239 262 284 242 233 233 223 49 196 81 77 180 194 196 195 199
40 52 61 71 87 103 129 157 197 110 139 164 162 176 186 181 177 196 192 202 215 240 242 218 220 218 216 226 235 242 267 272 273 313 263 236 323 292 43 51 75 166 185 194 197
50 54 63 77 105 113 123 216 87 108 125 149 158 173 180 187 208 191 196 210 210 212 243 236 221 208 216 224 226 228 231 263 274 263 258 219 139 59 51 46 87 121 169 186 195
51 61 61 85 108 109 119 70 116 120 135 156 171 181 179 183 197 199 188 210 234 230 234 245 216 201 205 219 226 241 275 242 226 247 259 289 119 165 37 31 36 86 157 180 193
72 63 74 97 97 95 97 105 101 122 114 76 142 177 155 181 208 197 192 173 234 237 228 233 234 188 208 209 204 200 223 228 285 259 279 249 68 27 19 17 16 13 134 191 198
51 37 93 100 47 63 89 82 141 126 140 138 116 123 142 198 202 199 212 188 245 255 219 218 236 214 177 207 224 243 290 228 240 220 248 272 187 345 334 346 338 336 315 303 207
343 92 128 122 15 102 119 101 69 79 116 162 178 180 211 204 208 235 216 214 247 238 254 207 223 216 242 208 217 235 215 249 270 282 284 277 180 305 320 330 318 305 288 260 244
249 222 177 224 86 15 92 46 130 148 89 211 242 231 229 219 229 206 209 210 225 243 241 229 232 259 355 286 233 213 228 239 261 265 314 65 143 297 307 302 298 294 289 271 245
274 172 196 198 212 355 349 298 343 5 275 292 223 263 266 246 228 216 226 225 219 219 232 231 249 245 258 248 249 242 232 240 252 276 267 292 300 282 297 297 284 279 268 272 262
326 270 246 266 241 265 222 269 303 319 292 294 284 287 266 264 248 272 242 252 249 249 257 247 247 261 253 235 253 255 250 251 265 265 263 267 258 265 265 278 272 265 269 263 255
12 301 250 241 263 257 278 289 290 292 247 270 286 282 263 273 258 261 260 260 254 256 255 256 254 259 250 261 244 250 253 255 247 269 266 273 251 259 270 280 273 263 260 254 252